Theta_e
322 325 337 337 344 341 342 343 341 344 346 343 343 343 343 343 344 357 347 344 346 348 345 342 328 327 327 325 323 322 322 322 325 334 335 333 330 329 328 327 326 324 322 321 320 320 320 321 323
334 333 335 336 339 341 341 339 342 344 343 344 344 345 341 345 347 350 348 345 347 347 345 336 328 329 329 325 322 322 322 331 336 336 332 330 329 327 323 319 317 317 318 318 318 317 317 317 317
324 333 334 337 338 339 340 338 341 342 344 345 345 345 344 344 348 349 348 346 347 345 344 334 331 331 329 324 322 323 333 331 335 331 330 328 323 317 317 319 319 319 319 318 317 315 314 314 314
330 329 330 334 337 337 337 337 340 343 345 345 345 350 351 348 349 350 347 348 346 344 345 331 332 332 328 323 323 337 332 335 331 330 327 321 317 319 319 319 319 319 318 315 313 312 311 311 311
328 329 333 333 335 335 335 335 338 344 346 346 345 349 352 350 350 348 348 348 345 342 347 333 333 332 326 322 331 331 331 331 331 326 320 317 319 319 319 319 319 318 314 312 310 310 310 310 310
326 328 333 334 333 335 335 335 337 342 344 346 347 348 352 350 349 348 347 346 343 341 343 336 333 332 324 323 334 331 332 331 326 320 318 318 319 319 319 319 318 315 311 310 310 310 310 310 310
327 329 330 333 333 337 339 337 338 344 343 346 344 349 352 350 348 347 345 344 341 340 342 343 339 330 323 341 327 332 332 328 323 319 318 319 320 319 319 319 316 313 310 309 310 310 310 310 310
324 328 328 332 332 339 338 339 340 344 348 345 344 346 353 350 348 345 343 341 340 339 341 341 342 338 341 329 332 332 332 328 325 321 320 321 324 325 321 323 314 311 310 310 310 310 316 320 314
322 327 328 331 332 336 333 335 339 339 342 345 346 345 348 350 347 344 341 340 339 339 339 340 339 339 340 342 333 332 332 330 327 323 321 330 333 331 329 317 313 311 311 311 311 316 323 326 327
323 326 328 332 333 333 331 328 328 332 337 341 345 347 349 349 347 343 339 338 338 338 339 340 338 338 341 342 337 338 336 336 338 334 331 332 330 326 322 323 322 316 322 323 322 321 322 325 326
323 326 328 330 330 330 330 329 327 329 333 337 342 349 349 349 347 341 339 337 338 338 339 340 339 339 341 340 339 338 338 337 337 334 333 329 328 328 327 326 326 326 324 326 324 323 322 324 325
324 323 325 327 329 329 330 328 327 328 331 335 339 348 349 349 347 341 338 337 338 338 340 340 340 341 342 340 338 338 337 336 336 335 329 327 329 328 325 324 324 324 324 325 324 324 322 322 321
322 324 323 324 325 327 327 328 327 327 328 333 337 343 349 349 348 343 340 339 337 338 341 341 342 342 343 341 339 338 337 336 336 334 332 330 329 325 327 323 324 323 323 324 325 324 323 322 321
323 323 323 323 324 326 327 328 326 329 330 332 340 343 347 348 348 345 340 342 339 339 342 341 341 342 342 341 341 339 337 335 335 333 333 328 328 326 326 325 323 323 323 323 324 325 323 322 322
322 323 324 323 323 325 325 327 327 328 330 331 339 343 346 348 348 347 342 343 341 340 342 343 340 342 343 342 341 339 337 335 335 335 335 324 322 322 320 324 322 321 322 317 323 324 323 323 322
323 324 324 325 325 325 324 327 329 329 329 330 335 342 346 347 349 348 346 345 343 340 342 342 339 341 341 341 339 338 335 333 333 335 335 328 322 319 321 321 320 320 321 322 323 325 324 323 323
324 326 327 327 327 326 325 325 334 332 330 330 339 344 345 347 348 349 348 346 345 344 343 340 339 342 343 335 332 333 333 334 335 335 334 330 324 318 318 320 319 312 320 320 321 321 324 324 323
326 326 326 327 329 329 330 332 334 336 332 334 336 340 343 346 349 350 350 347 347 348 347 343 341 342 335 331 330 333 333 334 335 334 332 333 325 319 315 320 313 316 318 320 320 320 319 321 322
325 326 327 326 329 331 331 334 336 336 337 338 339 338 340 343 346 349 350 348 347 349 350 348 343 341 337 332 333 333 332 332 334 334 334 332 325 320 314 319 317 315 319 321 318 319 317 316 317
325 326 327 328 328 330 332 333 335 336 338 339 340 341 342 341 345 346 348 348 347 349 351 348 346 342 341 335 332 333 333 332 332 334 333 332 330 319 316 313 316 313 317 319 319 318 320 316 315
326 328 327 328 330 327 327 334 337 336 335 337 339 341 343 344 345 346 345 345 347 349 349 350 349 343 342 339 334 334 329 329 330 333 333 329 329 325 314 311 313 311 314 318 318 317 317 317 315
329 326 325 326 326 328 330 332 337 335 335 337 338 339 342 343 345 345 346 345 345 347 349 347 348 343 341 339 336 332 329 330 330 331 331 330 329 329 316 312 308 306 316 316 315 316 316 310 315
328 326 326 327 327 328 328 328 337 335 335 336 337 338 341 343 345 345 345 346 346 346 346 343 338 340 339 338 334 332 331 332 332 331 330 330 329 329 317 312 311 308 312 312 313 312 306 314 316
327 328 329 330 328 329 332 327 338 336 334 334 334 336 337 339 343 344 344 344 343 343 340 341 340 341 340 339 334 332 332 333 333 331 330 330 329 328 317 312 309 310 312 306 309 308 310 315 313
328 330 332 334 332 335 331 326 336 335 332 330 331 335 334 335 338 340 344 344 346 343 341 338 339 340 340 341 338 334 333 332 334 332 331 330 329 327 318 312 312 311 309 308 314 306 316 314 314
331 330 330 333 332 332 330 330 335 332 329 328 330 333 334 334 336 339 341 344 345 344 342 343 343 341 342 340 337 335 335 331 333 332 329 330 325 322 319 313 311 316 314 312 305 310 314 315 314
329 329 332 331 331 328 328 330 330 329 329 328 329 331 333 334 334 335 336 336 337 340 342 342 343 342 342 341 339 336 333 333 333 332 330 330 324 323 321 316 315 315 317 313 308 313 313 313 312
326 330 329 330 331 332 329 328 328 333 329 329 329 331 333 333 336 336 337 339 339 339 339 342 343 344 342 340 339 338 335 334 334 334 329 329 324 322 321 317 317 318 313 313 310 307 311 313 314
327 326 326 327 328 329 328 329 331 330 329 329 328 329 332 332 334 337 338 338 337 336 336 338 341 342 342 338 339 336 335 335 335 335 333 329 326 322 321 320 320 317 314 314 311 311 315 315 313
325 325 326 327 328 329 329 329 327 328 328 327 326 328 330 335 335 334 334 334 333 332 332 333 339 339 340 336 335 336 337 336 336 334 333 330 327 322 322 321 319 316 319 317 316 313 314 313 313
Wind_Speed
8 8 7 14 8 8 9 9 4 2 7 9 7 16 8 15 14 5 13 10 15 15 15 14 13 11 10 9 8 8 7 7 7 6 4 3 3 3 3 5 5 6 7 7 8 9 9 8 8
3 8 11 14 11 5 8 9 7 13 9 6 6 4 12 15 12 11 13 16 17 15 15 14 14 12 9 9 8 8 8 8 6 4 2 1 2 3 4 5 5 6 7 7 8 9 9 9 9
7 8 15 13 12 10 11 5 8 12 9 3 4 4 11 11 8 9 13 20 16 15 17 15 13 11 10 9 9 8 8 6 4 2 1 1 3 4 5 6 7 8 9 9 9 8 8 8 8
5 10 13 10 8 12 7 4 10 13 7 2 4 12 9 6 6 9 20 18 17 16 15 16 13 10 9 9 9 8 7 5 3 2 1 4 4 5 7 8 9 10 11 12 12 11 11 10 8
9 12 12 14 3 3 3 3 1 7 4 7 5 13 10 7 11 18 19 16 16 16 13 15 13 10 9 9 9 8 7 4 2 2 4 3 4 5 7 8 9 10 11 12 12 11 10 9 8
13 16 13 12 9 5 1 1 1 7 5 10 8 10 10 11 16 15 16 15 14 15 12 13 13 10 9 10 9 8 5 2 2 3 2 2 4 5 7 8 10 12 13 12 11 10 9 9 8
16 11 16 9 9 10 9 1 3 5 8 5 2 11 11 14 15 16 16 15 15 15 13 12 11 11 11 11 9 6 4 2 2 2 2 4 6 7 8 9 11 12 12 11 11 11 10 12 11
16 10 18 6 6 13 8 7 6 7 16 7 4 10 16 16 16 17 17 15 15 15 13 12 12 11 10 9 9 6 4 2 1 1 3 6 6 8 9 12 12 11 11 11 11 12 13 18 19
9 9 12 13 2 11 7 3 6 2 3 3 5 6 10 18 18 17 17 17 16 14 13 13 10 10 11 8 9 6 4 2 0 1 3 9 5 8 6 6 9 10 11 12 14 15 19 16 17
11 10 9 8 7 3 3 2 4 3 8 7 7 6 15 18 18 17 17 18 17 15 14 13 12 11 13 8 5 5 4 2 3 0 2 4 3 4 3 10 12 11 12 15 15 17 18 12 6
13 14 4 3 6 5 6 7 3 4 7 6 11 14 17 18 16 15 15 15 16 15 14 12 14 13 12 9 6 5 3 3 2 1 3 4 1 3 5 10 12 12 13 8 9 7 8 9 7
10 10 6 9 5 11 10 6 5 6 5 5 3 16 16 15 14 15 15 14 15 16 15 14 14 14 12 9 8 5 4 3 2 2 2 4 4 4 1 2 3 3 2 2 3 4 7 8 10
9 4 7 10 10 12 8 11 9 9 5 7 4 12 15 14 14 15 16 16 17 18 18 17 14 13 12 10 7 6 4 3 2 2 2 0 0 4 2 3 1 1 1 2 2 1 4 6 7
3 5 7 9 14 12 12 11 4 4 4 5 4 10 13 13 14 15 16 16 17 18 19 17 15 14 13 10 9 6 6 3 2 0 4 2 1 3 3 3 2 3 2 1 0 1 2 3 5
6 10 12 10 9 8 7 11 12 11 4 5 5 7 10 11 14 15 16 17 17 18 19 19 19 16 14 12 8 5 2 3 6 6 7 4 1 4 2 4 2 3 4 4 2 2 1 1 2
12 13 11 9 5 6 9 15 17 6 6 8 7 5 6 11 13 14 17 18 18 18 21 21 19 19 19 16 12 9 11 12 13 11 12 5 5 3 2 4 5 6 3 2 3 2 2 2 2
10 10 12 8 1 2 9 12 10 4 6 7 8 4 8 10 13 15 17 19 19 19 22 23 23 22 20 22 18 12 11 19 16 12 7 9 6 4 1 3 6 5 4 3 4 4 4 5 3
6 6 2 5 6 5 3 8 8 4 3 2 4 7 8 10 13 14 16 19 19 18 18 19 19 21 23 18 12 10 16 18 16 10 3 8 5 6 3 5 5 1 5 4 4 6 5 6 6
5 6 5 6 3 8 4 7 10 11 10 7 4 2 5 9 11 13 15 18 20 19 19 20 20 29 24 20 16 18 18 19 22 16 9 4 5 8 6 3 6 1 5 5 9 3 4 3 5
4 5 6 4 2 14 7 8 6 10 13 12 10 10 7 3 11 10 12 16 18 19 18 18 23 25 24 22 17 16 17 19 24 21 15 12 4 8 6 5 5 7 6 6 6 6 5 5 6
1 9 5 4 8 10 9 8 8 11 13 14 13 14 15 10 4 9 8 12 15 18 17 17 20 21 19 17 19 15 18 18 18 22 21 15 8 8 9 8 6 8 7 7 6 4 6 5 6
10 4 4 6 9 7 4 6 9 8 12 12 14 15 18 17 12 7 6 6 8 12 15 17 19 13 13 16 17 16 15 17 14 17 18 14 18 11 11 9 6 5 6 9 4 6 6 7 5
8 4 7 7 10 8 12 7 9 29 13 10 12 12 15 15 14 12 8 5 6 9 12 16 11 9 12 12 13 12 11 9 10 14 12 12 19 18 12 10 8 7 5 9 11 9 7 4 5
4 9 11 11 12 9 2 8 10 8 5 8 13 14 13 13 12 11 9 8 5 4 5 5 6 9 12 14 13 10 9 12 10 17 15 16 16 16 16 12 9 8 8 7 4 6 5 5 9
7 10 9 9 7 9 3 7 8 15 7 8 9 12 12 11 10 9 7 7 7 6 3 4 5 10 13 14 16 12 10 12 13 15 14 17 19 19 18 14 11 8 7 8 6 6 5 4 4
4 7 7 7 5 5 7 2 7 11 6 8 8 9 8 9 8 7 6 5 5 4 3 6 7 7 12 15 15 13 13 12 14 15 14 16 15 14 16 14 12 10 8 7 6 5 4 4 5
6 8 9 9 8 7 4 6 10 7 7 5 9 4 7 6 4 5 4 3 2 2 3 6 10 9 8 12 15 13 12 10 12 14 20 19 18 14 17 13 13 11 10 10 7 6 8 9 6
10 8 6 8 3 13 4 4 4 12 7 8 7 10 5 3 5 3 3 3 1 0 2 4 6 7 7 10 10 11 14 11 16 18 19 21 20 15 18 14 14 13 12 11 8 8 7 6 5
7 9 4 5 6 9 9 6 10 6 6 2 8 9 6 4 1 3 2 2 1 1 2 3 3 5 6 6 8 11 13 11 13 15 17 22 23 22 21 15 15 16 14 12 10 6 9 8 8
7 13 2 6 4 6 6 12 5 0 3 6 12 2 6 2 5 6 4 2 1 1 2 2 3 4 9 8 7 9 12 11 10 10 11 17 23 22 20 19 18 18 16 15 14 12 13 15 10
Wind_Direction
260 283 306 276 245 231 109 90 9 104 115 59 47 17 23 42 6 68 140 144 147 138 151 155 154 144 139 134 132 130 129 128 127 124 115 93 60 28 23 17 19 15 9 359 351 346 338 332 325
238 273 276 274 250 229 98 56 331 62 71 81 69 283 35 73 54 109 137 143 143 139 146 158 154 147 141 140 135 134 135 135 140 129 109 49 30 24 38 34 25 14 3 357 348 341 333 328 323
220 258 276 251 262 29 77 28 48 92 103 91 123 54 26 47 70 122 144 145 148 149 148 162 154 149 146 140 138 141 145 149 151 149 128 74 68 59 45 30 11 7 0 356 348 343 339 333 327
221 240 246 258 264 80 62 26 105 121 92 350 341 84 97 62 118 137 137 143 147 148 155 156 153 149 144 142 144 151 157 165 178 175 127 88 69 42 25 14 8 7 1 358 355 351 348 348 345
234 259 258 238 112 45 77 85 323 93 156 114 355 79 80 97 123 135 143 146 146 145 162 162 157 153 150 154 150 163 162 176 175 131 100 74 42 24 14 9 8 8 6 2 359 0 0 358 354
231 247 258 239 127 41 235 200 103 214 93 119 140 130 95 137 138 145 149 151 152 152 155 168 162 160 160 159 164 165 163 159 129 107 91 31 17 14 12 10 8 10 10 10 11 16 15 13 10
251 238 259 315 70 191 37 293 221 23 156 61 24 86 121 151 151 150 153 156 156 156 159 156 159 169 167 159 169 164 162 158 118 92 24 7 10 6 9 14 13 12 12 16 23 29 33 35 30
265 278 263 257 186 93 92 234 52 256 75 63 299 26 141 157 156 154 155 157 159 159 163 160 169 160 154 170 170 175 170 140 118 83 31 14 17 11 21 28 9 11 15 26 35 44 53 49 41
236 255 252 234 186 108 147 302 107 71 277 187 70 36 129 156 157 159 161 161 163 164 163 164 167 160 157 172 179 182 171 173 303 2 33 58 34 27 12 353 4 13 24 37 46 60 55 38 32
235 234 262 21 43 53 24 343 34 274 175 162 146 102 141 155 162 165 166 166 166 167 168 169 164 164 162 172 194 163 142 57 91 129 54 61 205 207 287 355 10 27 41 33 38 46 48 37 25
216 262 333 56 251 303 310 263 55 252 245 146 166 145 158 163 167 167 168 170 169 168 170 171 170 168 172 178 156 177 191 194 214 179 77 228 12 351 16 334 0 354 14 15 22 35 51 67 64
261 247 299 246 184 241 254 341 274 268 330 72 67 147 162 164 168 172 172 170 172 173 175 170 175 172 167 183 162 190 192 167 82 227 18 340 25 349 318 258 317 16 295 39 37 17 66 72 68
249 252 235 245 250 241 266 275 287 280 6 132 150 150 164 173 175 177 176 174 176 178 180 175 176 170 174 166 175 168 198 145 199 37 290 248 316 286 343 297 294 280 310 340 52 55 88 63 71
111 289 265 231 231 230 244 246 250 191 358 156 140 158 169 177 177 177 177 177 178 180 182 177 173 175 176 170 175 177 160 193 156 140 297 351 72 305 314 334 313 306 295 241 119 206 82 76 62
248 248 210 215 220 246 264 254 247 249 305 289 152 168 165 178 177 182 185 182 179 180 180 178 172 177 178 172 177 162 182 197 240 266 273 281 298 312 160 291 306 272 260 217 200 173 146 124 73
241 222 210 118 258 160 237 258 209 112 249 271 160 131 181 178 181 185 189 189 181 177 178 177 176 183 182 177 174 175 219 254 273 271 300 269 284 290 360 305 281 263 254 236 220 214 230 222 209
210 245 117 127 330 156 220 249 65 336 280 266 110 151 201 184 187 189 190 189 187 182 180 183 182 181 176 200 213 227 250 253 256 253 273 278 280 274 242 287 285 282 250 228 230 228 223 251 232
122 113 135 114 121 234 227 46 29 19 256 188 230 191 208 193 194 194 191 192 191 188 189 184 183 185 210 220 214 246 261 257 254 239 189 307 277 273 266 275 275 262 251 233 217 212 242 231 252
20 342 41 76 72 283 42 76 65 59 59 58 7 271 196 195 191 193 194 195 195 193 191 190 182 204 216 213 220 234 254 264 256 244 219 218 241 275 281 255 309 300 243 215 236 231 268 246 254
243 238 135 98 206 274 142 133 104 102 93 78 64 57 45 113 161 182 193 200 201 200 202 200 205 221 224 222 229 234 264 269 254 241 230 222 235 258 271 242 242 236 248 231 211 208 215 260 257
9 340 81 296 153 257 276 158 0 139 114 97 72 63 61 59 140 169 187 204 209 206 211 204 216 217 226 226 232 243 269 278 258 241 230 182 230 277 262 275 215 252 179 261 219 222 221 245 260
139 57 291 250 246 260 209 282 161 147 110 85 78 60 62 61 70 99 149 169 208 197 199 209 219 221 237 228 227 265 271 275 267 235 224 220 235 263 264 271 253 220 216 226 232 225 195 233 267
59 343 282 298 263 293 221 261 134 344 95 71 69 71 72 68 72 81 103 129 163 185 222 237 225 224 221 231 238 286 268 256 278 215 248 233 224 241 251 251 238 236 173 233 200 223 197 238 246
354 250 233 234 229 230 137 299 136 153 359 92 86 82 73 72 76 83 94 101 120 157 175 172 195 216 234 233 244 275 258 251 245 237 229 221 230 232 234 236 238 232 221 243 222 213 224 197 217
231 251 246 251 240 160 230 294 85 192 97 76 74 92 87 84 86 93 97 110 138 154 163 175 204 220 247 266 252 264 286 255 248 231 225 216 218 226 226 227 226 232 201 230 210 210 209 242 249
296 333 305 295 335 154 174 312 78 93 117 101 98 97 101 104 101 105 109 117 153 154 190 207 233 231 236 259 280 262 274 260 237 240 227 229 215 213 226 221 221 207 226 225 238 233 201 242 261
159 247 17 311 256 266 215 126 175 162 158 164 139 117 126 126 124 114 122 121 100 168 219 256 270 273 242 239 257 282 263 259 247 235 235 224 203 211 225 223 221 213 209 228 250 186 224 218 241
284 10 246 223 222 264 143 202 198 168 190 184 190 177 153 180 159 136 144 156 154 200 260 260 236 240 258 273 270 247 262 257 246 254 247 235 209 197 227 221 214 218 225 233 234 242 256 221 232
180 214 236 330 316 317 301 60 63 132 163 290 213 188 154 212 102 188 199 212 223 275 286 280 276 273 262 239 233 247 257 270 266 264 245 234 224 209 221 221 221 227 233 230 238 204 229 228 229
282 288 292 276 233 255 309 292 134 327 247 234 275 308 245 196 228 237 218 208 228 319 349 314 280 283 284 302 257 262 271 272 270 269 255 235 224 221 226 228 223 235 223 227 233 239 212 231 231